McGrath, AK

12:55 PM AKDT on March 25, 2017 (GMT -0800)
McGrath

Weather History for PAMC - August, 2014

Change the Weather History Date:

Saturday, August 23, 2014

  Actual Average Record
Temperature  
Mean Temperature 56 °F 53 °F  
Max Temperature 70 °F 62 °F 81 °F (1977)
Min Temperature 41 °F 44 °F 27 °F (1974)
Degree Days  
Heating Degree Days 9 12  
Month to date heating degree days 126 221  
Since 1 June heating degree days 618 627  
Since 1 July heating degree days 313 393  
Cooling Degree Days 0    
Month to date cooling degree days 0  
Year to date cooling degree days 11 16  
Since 1 June cooling degree days 11 16  
Growing Degree Days 6 (Base 50)    
Moisture  
Dew Point 44 °F    
Average Humidity 69    
Maximum Humidity 93    
Minimum Humidity 28    
Precipitation  
Precipitation 0.00 in 0.09 in 0.72 in (1963)
Month to date precipitation 1.29 2.09  
Year to date precipitation 8.12 10.66  
Snow  
Snow 0.00 in 0.00 in 0.00 in (2016)
Month to date snowfall 0.0 0.0  
Since 1 June snowfall 0.0 0.0  
Since 1 July snowfall 0.0 0.0  
Snow Depth 0.00 in    
Sea Level Pressure  
Sea Level Pressure 30.12 in    
Wind  
Wind Speed 0 mph (ENE)    
Max Wind Speed 13 mph    
Max Gust Speed 10 mph    
Visibility 9 miles    
Events Fog    
T = Trace of Precipitation, MM = Missing Value Source: NWS Daily Summary

Daily Weather History Graph

Daily Weather History Graph

Search for Another Location

Airport or City:

Trip Planner

Search our weather history database for the weather conditions in past years. The results will help you decide how hot, cold, wet, or windy it might be!

Date:

Astronomy

Aug. 23, 2014 Rise Set
Actual Time 6:44 AM AKDT 10:03 PM AKDT
Civil Twilight 5:49 AM AKDT 10:57 PM AKDT
Nautical Twilight 4:27 AM AKDT 12:17 AM AKDT
Astronomical Twilight 2:57 AM AKDT 1:52 AM AKDT
Moon 4:59 AM AKDT (8/23) 8:54 PM AKDT (8/23)
Length of Visible Light 17h 08m
Length of Day
15h 19m
Waning Crescent, 3% of the Moon is Illuminated
Aug 23
Waning Crescent
Aug 25
New
Sep 2
First Quarter
Sep 8
Full
Sep 15
Last Quarter

Hourly Weather History & Observations

Time (AKDT) Temp. Windchill Dew Point Humidity Pressure Visibility Wind Dir Wind Speed Gust Speed Precip Events Conditions
12:53 AM 51.1 °F - 46.9 °F 86% 30.22 in 10.0 mi Calm Calm - N/A   Clear
1:53 AM 48.9 °F - 46.0 °F 90% 30.22 in 10.0 mi NNW 5.8 mph - N/A   Mostly Cloudy
2:53 AM 48.9 °F - 45.0 °F 86% 30.22 in 10.0 mi WNW 4.6 mph - N/A   Mostly Cloudy
4:53 AM 46.0 °F 44.8 °F 43.0 °F 89% 30.21 in 10.0 mi WNW 3.5 mph - N/A   Mostly Cloudy
5:53 AM 45.0 °F - 42.1 °F 90% 30.21 in 10.0 mi Calm Calm - N/A   Mostly Cloudy
6:09 AM 44.1 °F - 41.0 °F 89% 30.19 in 7.0 mi Calm Calm - N/A   Mostly Cloudy
6:13 AM 44.1 °F - 41.0 °F 89% 30.19 in 1.8 mi Calm Calm - N/A   Mostly Cloudy
6:27 AM 43.0 °F - 41.0 °F 93% 30.19 in 1.8 mi Calm Calm - N/A   Mostly Cloudy
6:34 AM 43.0 °F 41.3 °F 41.0 °F 93% 30.19 in 1.2 mi WNW 3.5 mph - N/A   Mostly Cloudy
6:53 AM 41.0 °F 39.0 °F 39.0 °F 93% 30.21 in 0.2 mi NW 3.5 mph - N/A Fog Fog
7:37 AM 42.1 °F - 39.9 °F 92% 30.19 in 10.0 mi Calm Calm - N/A   Mostly Cloudy
7:53 AM 43.0 °F - 39.9 °F 89% 30.20 in 10.0 mi Calm Calm - N/A   Mostly Cloudy
8:53 AM 45.0 °F - 42.1 °F 90% 30.19 in 10.0 mi Calm Calm - N/A   Mostly Cloudy
9:53 AM 48.9 °F - 44.1 °F 83% 30.18 in 10.0 mi Calm Calm - N/A   Mostly Cloudy
10:53 AM 55.0 °F - 46.0 °F 72% 30.16 in 10.0 mi Calm Calm - N/A   Scattered Clouds
11:53 AM 59.0 °F - 48.0 °F 67% 30.15 in 10.0 mi South 3.5 mph - N/A   Scattered Clouds
12:53 PM 64.9 °F - 48.9 °F 56% 30.13 in 10.0 mi Calm Calm - N/A   Scattered Clouds
1:53 PM 69.1 °F - 48.0 °F 47% 30.10 in 10.0 mi Calm Calm - N/A   Scattered Clouds
2:53 PM 70.0 °F - 44.1 °F 39% 30.08 in 10.0 mi East 8.1 mph - N/A   Scattered Clouds
3:53 PM 70.0 °F - 44.1 °F 39% 30.06 in 10.0 mi East 5.8 mph - N/A   Mostly Cloudy
4:53 PM 70.0 °F - 46.0 °F 42% 30.04 in 10.0 mi East 6.9 mph - N/A   Mostly Cloudy
5:53 PM 69.1 °F - 45.0 °F 42% 30.02 in 10.0 mi East 5.8 mph - N/A   Mostly Cloudy
6:53 PM 68.0 °F - 45.0 °F 43% 29.99 in 10.0 mi East 4.6 mph - N/A   Clear
7:53 PM 68.0 °F - 46.0 °F 45% 29.96 in 10.0 mi ENE 3.5 mph - N/A   Clear
9:53 PM 62.1 °F - 48.0 °F 60% 29.92 in 10.0 mi ENE 5.8 mph - N/A   Clear
10:53 PM 64.0 °F - 44.1 °F 48% 29.90 in 10.0 mi ENE 9.2 mph - N/A   Clear
11:53 PM 63.0 °F - 43.0 °F 48% 29.88 in 10.0 mi ENE 8.1 mph - N/A   Clear